WZ9ZZZ-1 Weather Reports


time (UTC)temp
F
wind
direction
speed
knots
gust
knots
rain 1hr
in
rain 24hr
in
rain mn
in
humidity
%
barometer
mb
20260504223322 77 247 4.3 6.1 0.00 0.00 0.00 71 1015.7
20260504222819 77 222 5.2 7.0 0.00 0.00 0.00 71 1015.9
20260504222316 77 153 1.7 1.7 0.00 0.00 0.00 72 1015.9
20260504221814 77 129 0.9 0.9 0.00 0.00 0.00 72 1015.8
20260504221310 77 255 4.3 5.2 0.00 0.00 0.00 71 1016.1
20260504220807 77 230 1.7 2.6 0.00 0.00 0.00 71 1016.2
20260504220304 77 170 2.6 5.2 0.00 0.00 0.00 70 1015.9
20260504215802 78 176 4.3 6.1 0.00 0.00 0.00 70 1015.9
20260504215258 77 284 2.6 5.2 0.00 0.00 0.00 70 1016.0
20260504214754 77 164 0.9 0.9 0.00 0.00 0.00 70 1016.2
20260504214250 77 106 0.9 1.7 0.00 0.00 0.00 69 1016.0
20260504213747 78 194 0.9 1.7 0.00 0.00 0.00 69 1016.5
20260504213243 78 250 0.9 1.7 0.00 0.00 0.00 69 1016.3
20260504212741 78 214 1.7 4.3 0.00 0.00 0.00 68 1016.2
20260504212237 78 212 2.6 5.2 0.00 0.00 0.00 69 1016.4
20260504211735 78 188 1.7 1.7 0.00 0.00 0.00 68 1016.6
20260504211231 78 203 2.6 4.3 0.00 0.00 0.00 68 1016.6
20260504210728 78 250 6.1 7.0 0.00 0.00 0.00 67 1016.4
20260504210225 78 148 1.7 2.6 0.00 0.00 0.00 68 1016.6
20260504205722 78 234 5.2 6.1 0.00 0.00 0.00 67 1016.7
20260504205220 79 198 1.7 2.6 0.00 0.00 0.00 67 1016.4
20260504204718 79 213 2.6 4.3 0.00 0.00 0.00 66 1016.5
20260504204216 80 228 4.3 7.0 0.00 0.00 0.00 65 1016.9
20260504203715 80 190 0.9 1.7 0.00 0.00 0.00 65 1016.9
20260504203212 82 135 2.6 5.2 0.00 0.00 0.00 62 1016.8
20260504202712 79 184 0.9 0.9 0.00 0.00 0.00 65 1017.2
20260504202210 81 226 3.5 5.2 0.00 0.00 0.00 64 1017.2
20260504201706 80 282 2.6 6.1 0.00 0.00 0.00 65 1017.0
20260504201204 79 207 1.7 2.6 0.00 0.00 0.00 66 1017.0
20260504200701 81 133 2.6 2.6 0.00 0.00 0.00 63 1017.1
20260504200157 82 161 1.7 1.7 0.00 0.00 0.00 62 1017.2
20260504195653 80 119 1.7 1.7 0.00 0.00 0.00 63 1017.3
20260504195150 80 258 3.5 6.1 0.00 0.00 0.00 64 1017.5
20260504194647 81 88 2.6 5.2 0.00 0.00 0.00 62 1017.4
20260504194142 80 268 3.5 6.1 0.00 0.00 0.00 63 1017.6
20260504193639 80 145 0.9 1.7 0.00 0.00 0.00 64 1017.3
20260504193137 82 256 4.3 5.2 0.00 0.00 0.00 63 1017.7
20260504192635 81 139 1.7 2.6 0.00 0.00 0.00 63 1017.7
20260504192133 80 158 1.7 1.7 0.00 0.00 0.00 64 1017.6
20260504191631 79 273 5.2 7.0 0.00 0.00 0.00 65 1017.7
20260504191127 80 159 0.9 0.9 0.00 0.00 0.00 63 1017.6
20260504190623 81 260 0.9 1.7 0.00 0.00 0.00 62 1017.7
20260504190120 79 246 5.2 7.8 0.00 0.00 0.00 65 1018.0
20260504185616 80 230 4.3 5.2 0.00 0.00 0.00 64 1018.1
20260504185113 80 178 0.0 0.9 0.00 0.00 0.00 62 1017.9
20260504184609 79 194 3.5 4.3 0.00 0.00 0.00 62 1017.8
20260504184104 80 235 3.5 4.3 0.00 0.00 0.00 63 1017.6
20260504183602 80 250 6.1 7.8 0.00 0.00 0.00 61 1017.7
20260504183059 80 244 2.6 5.2 0.00 0.00 0.00 64 1017.9
20260504182556 80 182 0.0 0.9 0.00 0.00 0.00 64 1018.0
20260504182054 79 232 2.6 4.3 0.00 0.00 0.00 64 1018.2
20260504181550 79 111 4.3 7.0 0.00 0.00 0.00 64 1018.1
20260504181049 80 169 0.9 0.9 0.00 0.00 0.00 62 1018.3
20260504180547 80 218 2.6 4.3 0.00 0.00 0.00 62 1018.5
20260504180046 79 195 1.7 2.6 0.00 0.00 0.00 63 1018.3
20260504175543 79 268 4.3 5.2 0.00 0.00 0.00 66 1018.3
20260504175040 79 293 1.7 2.6 0.00 0.00 0.00 63 1018.2
20260504174538 78 263 2.6 4.3 0.00 0.00 0.00 63 1018.6
20260504174034 80 223 3.5 4.3 0.00 0.00 0.00 62 1018.5
20260504173531 80 204 2.6 2.6 0.00 0.00 0.00 63 1018.9
20260504173028 79 272 5.2 6.1 0.00 0.00 0.00 64 1018.7
20260504172524 79 294 6.1 8.7 0.00 0.00 0.00 62 1018.7
20260504172021 79 177 1.7 1.7 0.00 0.00 0.00 63 1018.8
20260504171518 79 147 1.7 1.7 0.00 0.00 0.00 64 1018.9
20260504171015 78 251 3.5 7.0 0.00 0.00 0.00 65 1019.1
20260504170510 78 279 2.6 5.2 0.00 0.00 0.00 64 1019.2
20260504160431 77 162 3.5 5.2 0.00 0.00 0.00 66 1019.4
20260504150855 74 260 2.6 2.6 0.00 0.00 0.00 69 1019.5
20260504150351 74 211 6.1 7.8 0.00 0.00 0.00 68 1019.3
20260504141321 74 173 0.0 0.9 0.00 0.00 0.00 71 1019.3
20260504140818 73 128 0.0 0.9 0.00 0.00 0.00 71 1019.4
20260504140314 73 153 0.9 0.9 0.00 0.00 0.00 71 1019.3
20260504130743 69 180 0.9 0.9 0.00 0.00 0.00 72 1019.5
20260504130238 69 180 0.9 0.9 0.00 0.00 0.00 72 1019.5
20260504120202 62 180 0.0 0.0 0.00 0.00 0.00 80 1019.0
20260504110630 62 181 0.0 0.0 0.00 0.00 0.00 80 1019.0
20260504110125 62 181 0.0 0.0 0.00 0.00 0.00 80 1019.0
20260504100551 62 181 0.0 0.0 0.00 0.00 0.00 82 1019.1
20260504081945 64 180 0.0 0.0 0.00 0.00 0.00 76 1020.0
20260504081442 64 180 0.0 0.0 0.00 0.00 0.00 76 1019.8
20260504080938 64 180 0.0 0.0 0.00 0.00 0.00 75 1020.3
20260504080435 64 180 0.0 0.0 0.00 0.00 0.00 75 1020.1
20260504070403 64 185 0.0 0.0 0.00 0.00 0.00 75 1020.7
20260504050750 65 154 0.0 0.0 0.00 0.00 0.00 72 1021.8
20260504050247 65 155 0.0 0.0 0.00 0.00 0.00 71 1021.7
20260504045745 65 155 0.0 0.0 0.00 0.00 0.00 71 1021.8
20260504045239 66 159 0.0 0.0 0.00 0.00 0.00 71 1022.1
20260504044737 66 147 0.0 0.0 0.00 0.00 0.00 70 1022.1
20260504044234 66 208 0.0 0.0 0.00 0.00 0.00 70 1022.3
20260504043731 66 209 0.9 0.9 0.00 0.00 0.00 70 1022.0
20260504043228 66 210 0.0 1.7 0.00 0.00 0.00 70 1022.0
20260504042726 65 192 0.0 0.0 0.00 0.00 0.00 70 1022.0
20260504042222 65 192 0.0 0.0 0.00 0.00 0.00 70 1021.9
20260504041718 66 192 0.0 0.0 0.00 0.00 0.00 70 1022.0
20260504041214 66 192 0.0 0.0 0.00 0.00 0.00 69 1021.6
20260504040711 66 192 0.0 0.0 0.00 0.00 0.00 68 1022.0
20260504040208 67 192 0.0 0.9 0.00 0.00 0.00 67 1022.1
20260504035704 67 192 0.0 0.0 0.00 0.00 0.00 67 1022.1
20260504035202 67 192 1.7 1.7 0.00 0.00 0.00 67 1022.1
20260504034659 67 193 0.0 0.0 0.00 0.00 0.00 68 1022.2
20260504034156 66 193 0.0 0.0 0.00 0.00 0.00 68 1022.0
20260504033654 66 193 0.0 0.0 0.00 0.00 0.00 68 1022.2
20260504033151 66 193 0.0 0.0 0.00 0.00 0.00 68 1021.9
20260504032647 67 193 0.0 0.0 0.00 0.00 0.00 67 1022.0
20260504032145 67 193 0.0 0.0 0.00 0.00 0.00 66 1022.3
20260504031642 68 193 0.0 0.0 0.00 0.00 0.00 65 1021.9
20260504031138 67 193 0.0 0.0 0.00 0.00 0.00 65 1021.9
20260504030634 68 193 0.0 0.0 0.00 0.00 0.00 65 1022.0
20260504030131 68 193 0.0 0.0 0.00 0.00 0.00 64 1022.0
20260504025628 68 193 0.0 0.0 0.00 0.00 0.00 63 1022.0
20260504025125 69 192 0.0 0.0 0.00 0.00 0.00 63 1022.1
20260504024622 68 193 0.9 0.9 0.00 0.00 0.00 63 1022.2
20260504024119 68 193 0.9 0.9 0.00 0.00 0.00 63 1022.2
20260504023615 69 201 1.7 1.7 0.00 0.00 0.00 63 1022.0
20260504023111 69 210 0.9 0.9 0.00 0.00 0.00 62 1022.0
20260504022608 69 193 0.0 0.0 0.00 0.00 0.00 62 1021.9
20260504022104 69 192 0.9 0.9 0.00 0.00 0.00 62 1022.0
20260504021602 69 195 0.9 1.7 0.00 0.00 0.00 61 1022.0
20260504021058 70 216 1.7 1.7 0.00 0.00 0.00 60 1022.1
20260504020555 70 171 0.9 1.7 0.00 0.00 0.00 60 1022.1
20260504020051 70 196 0.0 0.0 0.00 0.00 0.00 60 1022.0
20260504015548 70 225 0.9 0.9 0.00 0.00 0.00 60 1022.0
20260504015044 70 217 1.7 1.7 0.00 0.00 0.00 60 1022.2
20260504014540 70 208 2.6 2.6 0.00 0.00 0.00 60 1022.1
20260504014038 70 223 1.7 2.6 0.00 0.00 0.00 60 1022.0
20260504013535 70 199 0.9 0.9 0.00 0.00 0.00 60 1021.8
20260504013032 71 174 0.0 0.0 0.00 0.00 0.00 60 1021.9
20260504012530 71 183 1.7 1.7 0.00 0.00 0.00 59 1022.0
20260504012027 71 177 0.0 0.0 0.00 0.00 0.00 59 1022.0
20260504011524 71 194 0.9 0.9 0.00 0.00 0.00 58 1021.8
20260504011020 71 223 1.7 2.6 0.00 0.00 0.00 57 1021.8
20260504010516 71 164 1.7 1.7 0.00 0.00 0.00 57 1021.7
20260504010012 72 205 0.9 0.9 0.00 0.00 0.00 57 1022.0
20260504005509 72 201 2.6 4.3 0.00 0.00 0.00 56 1021.8
20260504005006 72 203 0.9 1.7 0.00 0.00 0.00 56 1021.8
20260504004504 72 197 1.7 2.6 0.00 0.00 0.00 55 1021.8
20260504004001 72 148 0.9 1.7 0.00 0.00 0.00 55 1022.0
20260504003456 73 218 3.5 4.3 0.00 0.00 0.00 54 1021.8
20260504002954 73 220 4.3 6.1 0.00 0.00 0.00 54 1021.9
20260504002451 73 239 1.7 2.6 0.00 0.00 0.00 54 1021.9
20260504001948 73 190 2.6 2.6 0.00 0.00 0.00 53 1021.9
20260504001445 73 186 2.6 5.2 0.00 0.00 0.00 53 1022.0
20260504000942 73 197 1.7 2.6 0.00 0.00 0.00 53 1021.9
20260504000439 74 185 2.6 2.6 0.00 0.00 0.00 53 1021.9
20260503235936 74 250 1.7 2.6 0.00 0.00 0.00 52 1021.9
20260503235434 74 165 0.0 0.9 0.00 0.00 0.00 51 1021.9
20260503234931 75 182 1.7 2.6 0.00 0.00 0.00 50 1022.3
20260503234429 75 167 0.9 1.7 0.00 0.00 0.00 49 1022.1
20260503233927 75 183 0.9 1.7 0.00 0.00 0.00 49 1022.4
20260503233423 75 216 4.3 5.2 0.00 0.00 0.00 49 1022.5
20260503232919 75 174 0.9 1.7 0.00 0.00 0.00 47 1022.3
20260503232416 76 178 2.6 4.3 0.00 0.00 0.00 47 1022.1
20260503231914 76 218 4.3 5.2 0.00 0.00 0.00 47 1022.3
20260503231411 76 134 0.0 0.0 0.00 0.00 0.00 47 1022.6
20260503230908 77 139 0.0 0.9 0.00 0.00 0.00 46 1022.5
20260503230404 77 144 1.7 1.7 0.00 0.00 0.00 47 1022.4
20260503225902 77 130 0.9 0.9 0.00 0.00 0.00 48 1022.5
20260503225358 77 112 0.9 0.9 0.00 0.00 0.00 48 1022.6
20260503224854 77 113 0.9 0.9 0.00 0.00 0.00 47 1022.5
20260503224351 77 113 0.9 0.9 0.00 0.00 0.00 47 1022.5
20260503223849 78 81 1.7 2.6 0.00 0.00 0.00 46 1022.7